EW9434 Weather Reports


Display with metric or nautical units.
time (UTC)temp
F
wind
direction
speed
MPH
gust
MPH
rain 1hr
in
rain 24hr
in
rain mn
in
humidity
%
barometer
mb
20260507214852 60 136 3.0 8.0 0.00 0.00 0.00 37 1013.3
20260507214530 60 211 1.0 8.0 0.00 0.00 0.00 36 1013.7
20260507214350 61 217 4.0 9.0 0.00 0.00 0.00 35 1013.3
20260507213826 61 190 4.0 9.0 0.00 0.00 0.00 39 1013.3
20260507213323 61 189 4.0 9.0 0.00 0.00 0.00 38 1013.3
20260507213033 61 181 4.0 15.0 0.00 0.00 0.00 38 1013.7
20260507212758 62 138 4.0 15.0 0.00 0.00 0.00 38 1013.4
20260507212256 62 211 3.0 6.0 0.00 0.00 0.00 39 1013.3
20260507211731 62 196 3.0 11.0 0.00 0.00 0.00 37 1013.3
20260507211555 62 172 3.0 11.0 0.00 0.00 0.00 36 1013.7
20260507211205 62 263 2.0 11.0 0.00 0.00 0.00 38 1013.4
20260507210639 62 246 2.0 8.0 0.00 0.00 0.00 37 1013.3
20260507210115 62 315 2.0 8.0 0.00 0.00 0.00 37 1013.2
20260507210054 62 322 2.0 8.0 0.00 0.00 0.00 38 1013.6
20260507205549 62 251 2.0 10.0 0.00 0.00 0.00 38 1013.2
20260507205024 61 215 4.0 10.0 0.00 0.00 0.00 39 1013.2
20260507204531 60 140 4.0 10.0 0.00 0.00 0.00 37 1013.6
20260507204456 61 198 5.0 12.0 0.00 0.00 0.00 37 1013.2
20260507204221 61 194 5.0 12.0 0.00 0.00 0.00 39 1013.2
20260507203931 61 209 4.0 10.0 0.00 0.00 0.00 40 1013.2
20260507203016 61 194 4.0 10.0 0.00 0.00 0.00 42 1013.5
20260507202944 61 126 3.0 10.0 0.00 0.00 0.00 42 1013.2
20260507202649 61 237 3.0 10.0 0.00 0.00 0.00 42 1013.1
20260507201912 61 198 4.0 10.0 0.00 0.00 0.00 37 1013.2
20260507201856 62 234 3.0 10.0 0.00 0.00 0.00 37 1013.2
20260507200846 62 242 3.0 8.0 0.00 0.00 0.00 39 1013.3
20260507200319 61 324 3.0 8.0 0.00 0.00 0.00 39 1013.2
20260507200053 60 317 1.0 8.0 0.00 0.00 0.00 41 1013.6
20260507195819 60 231 3.0 8.0 0.00 0.00 0.00 41 1013.3
20260507195251 61 159 4.0 8.0 0.00 0.00 0.00 44 1013.2
20260507194728 61 252 3.0 8.0 0.00 0.00 0.00 40 1013.3
20260507194546 61 284 4.0 8.0 0.00 0.00 0.00 39 1013.7
20260507194157 61 204 4.0 11.0 0.00 0.00 0.00 45 1013.4
20260507193653 60 192 4.0 11.0 0.00 0.00 0.00 38 1013.4
20260507193149 60 115 3.0 9.0 0.00 0.00 0.00 41 1013.6
20260507193028 60 113 2.0 6.0 0.00 0.00 0.00 41 1014.0
20260507192644 60 90 4.0 9.0 0.00 0.00 0.00 37 1013.5
20260507192116 61 124 3.0 9.0 0.00 0.00 0.00 39 1013.6
20260507191613 61 234 3.0 9.0 0.00 0.00 0.00 39 1013.5
20260507191543 60 234 2.0 9.0 0.00 0.00 0.00 39 1014.0
20260507191048 60 103 4.0 17.0 0.00 0.00 0.00 40 1013.5
20260507190521 60 255 4.0 17.0 0.00 0.00 0.00 37 1013.6
20260507190018 60 136 3.0 12.0 0.00 0.00 0.00 41 1013.5
20260507190006 60 101 3.0 9.0 0.00 0.00 0.00 41 1013.9
20260507185453 60 155 4.0 12.0 0.00 0.00 0.00 44 1013.6
20260507184923 60 200 5.0 12.0 0.00 0.00 0.00 44 1013.6
20260507184506 59 71 2.0 12.0 0.00 0.00 0.00 43 1014.1
20260507184422 60 150 5.0 12.0 0.00 0.00 0.00 41 1013.6
20260507183855 60 190 4.0 9.0 0.00 0.00 0.00 40 1013.5
20260507183327 60 203 4.0 12.0 0.00 0.00 0.00 43 1013.7
20260507183055 60 194 4.0 12.0 0.00 0.00 0.00 42 1013.9
20260507183020 59 165 4.0 12.0 0.00 0.00 0.00 45 1014.4
20260507182323 60 170 3.0 8.0 0.00 0.00 0.00 41 1013.9
20260507182021 60 206 4.0 9.0 0.00 0.00 0.00 41 1013.8
20260507181512 59 211 2.0 8.0 0.00 0.00 0.00 43 1014.3
20260507181231 60 155 3.0 9.0 0.00 0.00 0.00 43 1013.9
20260507180705 60 243 3.0 9.0 0.00 0.00 0.00 41 1013.8
20260507180139 59 23 4.0 8.0 0.00 0.00 0.00 42 1014.0
20260507180014 59 240 3.0 8.0 0.00 0.00 0.00 45 1014.4
20260507175635 59 167 3.0 8.0 0.00 0.00 0.00 44 1014.0
20260507175137 59 222 3.0 12.0 0.00 0.00 0.00 45 1014.1
20260507174827 58 184 4.0 12.0 0.00 0.00 0.00 45 1014.1
20260507174549 58 213 4.0 12.0 0.00 0.00 0.00 43 1014.1
20260507174540 58 140 2.0 12.0 0.00 0.00 0.00 45 1014.6
20260507173559 58 207 4.0 12.0 0.00 0.00 0.00 44 1014.2
20260507173053 57 199 6.0 12.0 0.00 0.00 0.00 43 1014.8
20260507173028 58 190 5.0 12.0 0.00 0.00 0.00 43 1014.3
20260507172528 58 26 4.0 9.0 0.00 0.00 0.00 41 1014.4
20260507172023 58 206 4.0 12.0 0.00 0.00 0.00 42 1014.4
20260507172002 57 283 4.0 12.0 0.00 0.00 0.00 41 1014.5
20260507171604 57 199 2.0 12.0 0.00 0.00 0.00 41 1015.0
20260507171010 58 181 4.0 10.0 0.00 0.00 0.00 44 1014.6
20260507170512 57 288 4.0 10.0 0.00 0.00 0.00 44 1014.7
20260507170000 56 286 4.0 12.0 0.00 0.00 0.00 43 1015.2
20260507165952 57 290 4.0 13.0 0.00 0.00 0.00 43 1014.7
20260507165452 57 287 5.0 14.0 0.00 0.00 0.00 47 1014.7
20260507164947 57 167 4.0 14.0 0.00 0.00 0.00 44 1014.8
20260507164502 57 118 2.0 8.0 0.00 0.00 0.00 46 1015.2
20260507164421 57 128 4.0 10.0 0.00 0.00 0.00 45 1014.7
20260507163913 56 209 4.0 17.0 0.00 0.00 0.00 47 1014.9
20260507163413 57 185 3.0 17.0 0.00 0.00 0.00 46 1014.9
20260507163010 56 324 2.0 8.0 0.00 0.00 0.00 44 1015.3
20260507162842 57 211 3.0 8.0 0.00 0.00 0.00 46 1014.9
20260507162342 56 53 4.0 11.0 0.00 0.00 0.00 51 1015.0
20260507162035 55 191 4.0 11.0 0.00 0.00 0.00 43 1015.0
20260507161501 55 151 5.0 11.0 0.00 0.00 0.00 42 1015.4
20260507161312 56 232 3.0 9.0 0.00 0.00 0.00 47 1015.0
20260507160743 56 253 3.0 9.0 0.00 0.00 0.00 45 1015.0
20260507160242 55 286 4.0 12.0 0.00 0.00 0.00 50 1014.9
20260507160103 54 289 3.0 12.0 0.00 0.00 0.00 45 1015.4
20260507155715 54 288 4.0 12.0 0.00 0.00 0.00 48 1015.0
20260507155214 55 288 4.0 11.0 0.00 0.00 0.00 45 1015.0
20260507154904 54 287 5.0 11.0 0.00 0.00 0.00 44 1015.0
20260507154551 54 288 5.0 11.0 0.00 0.00 0.00 45 1015.5
20260507154141 54 290 5.0 11.0 0.00 0.00 0.00 46 1015.0
20260507153901 54 289 4.0 13.0 0.00 0.00 0.00 46 1015.0
20260507153114 54 290 5.0 13.0 0.00 0.00 0.00 44 1015.0
20260507153050 53 290 6.0 13.0 0.00 0.00 0.00 44 1015.4
20260507152808 53 273 5.0 12.0 0.00 0.00 0.00 45 1014.9
20260507152030 53 286 5.0 12.0 0.00 0.00 0.00 46 1014.9
20260507151530 53 286 4.0 12.0 0.00 0.00 0.00 44 1014.9
20260507151502 53 287 5.0 12.0 0.00 0.00 0.00 44 1015.3
20260507151030 54 209 3.0 9.0 0.00 0.00 0.00 47 1014.8
20260507150531 54 130 4.0 9.0 0.00 0.00 0.00 47 1014.8
20260507150045 54 140 2.0 9.0 0.00 0.00 0.00 51 1015.2
20260507150007 54 138 3.0 9.0 0.00 0.00 0.00 51 1014.8
20260507145438 53 102 3.0 8.0 0.00 0.00 0.00 52 1014.7
20260507144933 53 161 4.0 8.0 0.00 0.00 0.00 48 1014.8
20260507144559 52 165 4.0 10.0 0.00 0.00 0.00 48 1015.3
20260507144429 53 215 4.0 10.0 0.00 0.00 0.00 48 1014.9
20260507143928 53 241 3.0 7.0 0.00 0.00 0.00 48 1014.8
20260507143424 53 155 3.0 7.0 0.00 0.00 0.00 51 1014.9
20260507143140 53 123 2.0 7.0 0.00 0.00 0.00 52 1014.9
20260507143002 53 268 2.0 6.0 0.00 0.00 0.00 51 1015.3
20260507142356 53 182 3.0 8.0 0.00 0.00 0.00 48 1014.9
20260507141851 52 296 3.0 8.0 0.00 0.00 0.00 47 1014.9
20260507141538 52 203 2.0 8.0 0.00 0.00 0.00 50 1015.4
20260507141350 52 142 3.0 9.0 0.00 0.00 0.00 51 1014.9
20260507140845 52 255 3.0 9.0 0.00 0.00 0.00 50 1014.9
20260507140344 51 259 4.0 12.0 0.00 0.00 0.00 48 1014.9
20260507140108 51 242 2.0 11.0 0.00 0.00 0.00 50 1015.4
20260507135830 51 188 4.0 12.0 0.00 0.00 0.00 53 1014.9
20260507135333 52 210 3.0 9.0 0.00 0.00 0.00 49 1014.9
20260507134807 52 234 2.0 6.0 0.00 0.00 0.00 56 1014.9
20260507134604 51 237 1.0 6.0 0.00 0.00 0.00 50 1015.3
20260507134303 51 203 2.0 6.0 0.00 0.00 0.00 53 1014.9
20260507133953 51 211 2.0 7.0 0.00 0.00 0.00 55 1014.8
20260507133233 51 253 2.0 7.0 0.00 0.00 0.00 56 1014.8
20260507133007 50 222 2.0 7.0 0.00 0.00 0.00 54 1015.3
20260507133002 50 219 3.0 7.0 0.00 0.00 0.00 55 1014.8
20260507132229 50 192 3.0 8.0 0.00 0.00 0.00 56 1014.9
20260507131722 49 159 3.0 8.0 0.00 0.00 0.00 56 1014.9
20260507131521 49 22 2.0 8.0 0.00 0.00 0.00 58 1015.4
20260507131222 49 197 3.0 7.0 0.00 0.00 0.00 58 1015.0
20260507130717 49 231 2.0 8.0 0.00 0.00 0.00 63 1014.9
20260507130217 48 49 2.0 8.0 0.00 0.00 0.00 65 1014.9
20260507130046 48 201 1.0 7.0 0.00 0.00 0.00 69 1015.3
20260507125936 48 178 2.0 7.0 0.00 0.00 0.00 68 1014.8
20260507125210 47 219 2.0 7.0 0.00 0.00 0.00 68 1014.8
20260507124644 47 145 1.0 4.0 0.00 0.00 0.00 74 1014.8
20260507124509 46 146 1.0 4.0 0.00 0.00 0.00 74 1015.3
20260507124119 46 146 1.0 4.0 0.00 0.00 0.00 73 1014.9
20260507123556 46 140 1.0 5.0 0.00 0.00 0.00 75 1015.0
20260507123029 45 273 1.0 5.0 0.00 0.00 0.00 77 1014.9
20260507123014 45 273 1.0 5.0 0.00 0.00 0.00 77 1015.4
20260507122501 44 273 1.0 4.0 0.00 0.00 0.00 79 1015.0
20260507121936 44 273 0.0 4.0 0.00 0.00 0.00 82 1015.0
20260507121602 43 288 0.0 3.0 0.00 0.00 0.00 83 1015.5
20260507121409 43 291 0.0 3.0 0.00 0.00 0.00 83 1015.0
20260507121104 43 287 0.0 3.0 0.00 0.00 0.00 85 1015.0
20260507121051 42 287 1.0 3.0 0.00 0.00 0.00 85 1014.9
20260507121002 42 287 0.0 2.0 0.00 0.00 0.00 86 1014.8
20260507080750 44 287 0.0 1.0 0.00 0.00 0.00 89 1013.8
20260507080226 44 287 0.0 3.0 0.00 0.00 0.00 89 1013.7
20260507075720 44 287 0.0 3.0 0.00 0.00 0.00 89 1013.7
20260507075218 44 287 0.0 2.0 0.00 0.01 0.00 89 1013.7
20260507074713 44 287 0.0 1.0 0.00 0.01 0.00 90 1013.7
20260507074525 43 287 0.0 0.0 0.00 0.08 0.00 90 1014.1
20260507074212 44 287 0.0 0.0 0.00 0.02 0.00 90 1013.7
20260507073708 44 287 0.0 0.0 0.00 0.03 0.00 90 1013.7
20260507073206 44 287 0.0 0.0 0.00 0.04 0.00 90 1013.7
20260507073026 43 287 0.0 0.0 0.00 0.08 0.00 91 1014.1
20260507072639 44 287 0.0 1.0 0.00 0.04 0.00 91 1013.7
20260507072140 44 287 0.0 1.0 0.00 0.04 0.00 91 1013.7
20260507071831 44 287 0.0 3.0 0.00 0.05 0.00 91 1013.7
20260507071616 44 287 0.0 3.0 0.00 0.08 0.00 91 1014.1
20260507071107 44 288 0.0 3.0 0.00 0.05 0.00 91 1013.7
20260507070604 44 287 0.0 2.0 0.00 0.06 0.00 91 1013.7
20260507070037 44 287 0.0 1.0 0.00 0.08 0.00 90 1013.7
20260507070011 44 287 0.0 1.0 0.00 0.13 0.00 90 1014.1
20260507065510 44 287 0.0 2.0 0.00 0.09 0.00 90 1013.7
20260507064944 45 287 0.0 2.0 0.00 0.10 0.00 90 1013.8
20260507064647 45 288 0.0 1.0 0.00 0.11 0.00 90 1013.8
20260507064600 44 287 0.0 1.0 0.00 0.13 0.00 90 1014.2
20260507063914 45 287 0.0 2.0 0.00 0.11 0.00 90 1013.9
20260507063412 45 287 0.0 1.0 0.00 0.11 0.00 90 1013.9
20260507063013 45 287 0.0 3.0 0.00 0.13 0.00 90 1014.3
20260507062844 45 288 0.0 3.0 0.00 0.11 0.00 90 1013.9
20260507062342 45 288 0.0 2.0 0.00 0.11 0.00 89 1013.9
20260507061814 45 287 0.0 1.0 0.00 0.11 0.00 89 1013.9
20260507061539 45 287 0.0 1.0 0.00 0.13 0.00 89 1014.2
20260507061512 45 287 0.0 1.0 0.00 0.12 0.00 89 1013.8
20260507060950 46 287 0.0 1.0 0.00 0.13 0.00 89 1013.8
20260507060156 46 287 0.0 1.0 0.00 0.13 0.00 89 1013.8
20260507060031 45 287 0.0 1.0 0.00 0.13 0.00 89 1014.2
20260507055631 46 287 0.0 1.0 0.00 0.14 0.00 88 1013.9
20260507055106 46 287 1.0 2.0 0.00 0.15 0.00 88 1013.9
20260507054538 46 287 1.0 2.0 0.00 0.15 0.00 88 1014.0
20260507054516 46 287 0.0 2.0 0.00 0.24 0.00 88 1014.4
20260507054011 46 288 0.0 2.0 0.00 0.15 0.00 88 1014.0
20260507053510 46 287 0.0 2.0 0.00 0.16 0.00 87 1014.0
20260507053048 46 287 0.0 2.0 0.00 0.24 0.00 87 1014.4
20260507053006 46 287 0.0 1.0 0.00 0.17 0.00 86 1014.0
20260507052437 47 287 0.0 2.0 0.00 0.17 0.00 86 1013.9
20260507051936 47 287 0.0 2.0 0.00 0.18 0.00 85 1013.8
20260507051548 47 287 0.0 2.0 0.00 0.24 0.00 85 1014.3
20260507051409 47 287 0.0 2.0 0.00 0.19 0.00 85 1013.9
20260507050906 47 287 0.0 2.0 0.00 0.21 0.00 84 1014.0
20260507050406 48 287 1.0 3.0 0.00 0.23 0.00 83 1014.1
20260507050119 48 287 1.0 3.0 0.00 0.24 0.00 82 1014.2
20260507050025 47 287 0.0 3.0 0.00 0.24 0.00 82 1014.6
20260507045356 48 288 1.0 3.0 0.00 0.26 0.00 81 1014.1
20260507044830 49 288 1.0 3.0 0.00 0.28 0.00 81 1014.2
20260507044540 48 288 0.0 3.0 0.00 0.42 0.00 80 1014.6
20260507044301 49 288 1.0 3.0 0.00 0.31 0.00 80 1014.2
20260507043800 49 288 1.0 3.0 0.00 0.31 0.00 79 1014.1
20260507043234 49 288 1.0 3.0 0.00 0.32 0.00 78 1014.0
20260507043035 49 287 0.0 3.0 0.00 0.42 0.00 78 1014.3
20260507042731 50 287 1.0 4.0 0.00 0.32 0.00 77 1013.9
20260507042226 50 287 1.0 4.0 0.00 0.34 0.00 77 1013.9
20260507041722 50 287 1.0 3.0 0.00 0.34 0.00 77 1014.0
20260507041509 50 287 1.0 3.0 0.00 0.42 0.00 77 1014.4
20260507041216 50 287 1.0 3.0 0.00 0.36 0.00 76 1014.0
20260507040652 50 287 1.0 3.0 0.00 0.39 0.00 76 1014.0
20260507040125 50 287 1.0 3.0 0.00 0.42 0.00 75 1013.9
20260507040008 50 287 1.0 3.0 0.00 0.46 0.42 75 1014.3
20260507035558 50 287 1.0 2.0 0.00 0.43 0.42 74 1013.9
20260507035032 50 287 0.0 2.0 0.00 0.44 0.42 73 1013.9
20260507034522 50 287 0.0 2.0 0.00 0.46 0.42 72 1014.3
20260507034505 51 287 1.0 2.0 0.00 0.44 0.42 72 1014.0
20260507034002 50 287 1.0 2.0 0.00 0.45 0.42 72 1014.0
20260507033457 50 287 1.0 2.0 0.00 0.45 0.42 71 1014.0
20260507033213 50 288 0.0 2.0 0.00 0.45 0.42 71 1013.9
20260507033039 50 288 0.0 2.0 0.00 0.46 0.42 71 1014.3
20260507032429 50 288 0.0 1.0 0.00 0.45 0.42 71 1013.9
20260507031928 50 289 0.0 1.0 0.00 0.45 0.42 71 1014.0
20260507031526 49 288 0.0 0.0 0.00 0.46 0.42 70 1014.3
20260507031359 50 288 0.0 1.0 0.00 0.45 0.42 70 1014.0
20260507030857 50 288 0.0 1.0 0.00 0.45 0.42 70 1014.0
20260507030330 50 288 0.0 0.0 0.00 0.45 0.42 70 1014.0
20260507030040 50 288 0.0 0.0 0.00 0.46 0.42 69 1014.4
20260507025817 51 288 0.0 0.0 0.00 0.46 0.42 69 1014.1
20260507025545 51 288 0.0 0.0 0.00 0.46 0.42 69 1014.1
20260507024754 51 288 0.0 0.0 0.00 0.47 0.42 68 1014.1
20260507024554 51 288 0.0 0.0 0.00 0.53 0.42 67 1014.4
20260507024255 51 288 0.0 0.0 0.00 0.47 0.42 67 1014.0
20260507024202 51 287 0.0 0.0 0.00 0.48 0.42 67 1014.0
20260507023229 51 287 0.0 1.0 0.00 0.49 0.42 67 1014.0
20260507023047 51 287 0.0 1.0 0.00 0.53 0.42 67 1014.3
20260507022702 51 287 0.0 1.0 0.00 0.50 0.42 66 1014.0
20260507022200 51 287 0.0 1.0 0.00 0.51 0.42 66 1014.0
20260507021658 51 287 0.0 0.0 0.00 0.51 0.42 66 1014.0
20260507021605 51 287 0.0 0.0 0.00 0.53 0.42 66 1014.3
20260507021156 51 287 0.0 1.0 0.00 0.51 0.42 66 1013.9
20260507020636 51 287 0.0 1.0 0.00 0.52 0.42 67 1013.8
20260507020111 51 287 0.0 0.0 0.00 0.52 0.42 67 1013.8
20260507020021 51 287 0.0 0.0 0.00 0.53 0.42 67 1014.1
20260507015612 51 287 0.0 1.0 0.00 0.54 0.42 67 1013.7
20260507015052 51 287 0.0 1.0 0.00 0.55 0.42 67 1013.7
20260507014552 51 287 0.0 1.0 0.00 0.56 0.42 67 1013.7
20260507014522 51 287 0.0 1.0 0.00 0.60 0.42 67 1014.0
20260507014032 51 287 0.0 1.0 0.00 0.56 0.42 67 1013.6
20260507013534 51 287 0.0 1.0 0.00 0.56 0.42 68 1013.5
20260507013231 51 287 0.0 0.0 0.00 0.56 0.42 67 1013.5
20260507013049 51 287 0.0 0.0 0.00 0.60 0.42 67 1013.7
20260507012452 52 287 0.0 0.0 0.00 0.56 0.42 67 1013.4
20260507012428 52 288 0.0 1.0 0.00 0.56 0.42 67 1013.2
20260507011536 52 288 0.0 1.0 0.00 0.60 0.42 67 1013.5
20260507011449 52 288 0.0 1.0 0.00 0.57 0.42 67 1013.3
20260507010922 53 288 0.0 0.0 0.00 0.58 0.42 66 1013.3
20260507010422 53 287 0.0 0.0 0.00 0.59 0.42 64 1013.4
20260507010035 53 288 0.0 0.0 0.00 0.60 0.42 64 1013.7
20260507005919 53 288 0.0 0.0 0.00 0.61 0.42 64 1013.4
20260507005423 53 287 0.0 0.0 0.00 0.62 0.42 63 1013.3
20260507005124 54 288 0.0 1.0 0.00 0.64 0.42 63 1013.3
20260507004519 53 288 0.0 1.0 0.00 0.67 0.42 62 1013.5
20260507004341 54 290 0.0 1.0 0.00 0.65 0.42 62 1013.3
20260507003820 54 273 0.0 1.0 0.00 0.65 0.42 62 1013.3
20260507003257 54 273 0.0 1.0 0.00 0.65 0.42 62 1013.2
20260507003031 54 273 0.0 2.0 0.00 0.67 0.42 62 1013.4
20260507002743 55 273 0.0 2.0 0.00 0.65 0.42 61 1013.2
20260507002243 55 273 1.0 3.0 0.00 0.65 0.42 61 1013.1
20260507001720 55 273 0.0 3.0 0.00 0.66 0.42 60 1013.0
20260507001549 54 290 0.0 3.0 0.00 0.67 0.42 61 1013.3
20260507001158 55 292 0.0 2.0 0.00 0.66 0.42 61 1012.8
20260507000658 55 291 1.0 2.0 0.00 0.67 0.42 60 1012.8
20260507000149 56 273 1.0 2.0 0.00 0.67 0.42 59 1012.7
20260507000008 55 289 0.0 2.0 0.00 0.69 0.42 60 1013.1
20260506235649 56 289 1.0 4.0 0.00 0.67 0.42 60 1012.8
20260506235147 56 289 1.0 4.0 0.00 0.67 0.42 58 1012.6
20260506235128 56 289 1.0 3.0 0.00 0.68 0.42 59 1012.6
20260506234502 56 291 1.0 3.0 0.00 0.69 0.42 59 1012.9
20260506234117 56 291 2.0 5.0 0.00 0.68 0.42 60 1012.7
20260506233557 57 273 2.0 5.0 0.00 0.68 0.42 58 1012.7
20260506233034 57 273 2.0 5.0 0.00 0.68 0.42 58 1012.6
20260506233002 57 273 1.0 5.0 0.00 0.69 0.42 56 1012.9
20260506232508 57 290 2.0 4.0 0.00 0.69 0.42 57 1012.6
20260506231947 58 273 2.0 4.0 0.00 0.69 0.42 54 1012.3
20260506231528 57 288 2.0 4.0 0.00 0.69 0.42 53 1012.6
20260506231445 58 288 2.0 4.0 0.00 0.69 0.42 53 1012.2
20260506230943 58 216 2.0 5.0 0.00 0.69 0.42 53 1012.4
20260506230456 58 215 2.0 7.0 0.00 0.69 0.42 53 1012.4
20260506230023 58 192 1.0 6.0 0.00 0.69 0.42 57 1012.7
20260506225940 58 190 2.0 8.0 0.00 0.69 0.42 57 1012.4
20260506225437 58 292 2.0 8.0 0.00 0.69 0.42 60 1012.6
20260506224913 58 291 1.0 4.0 0.00 0.69 0.42 55 1012.5
20260506224537 57 273 1.0 4.0 0.00 0.70 0.42 57 1012.8
20260506224348 58 273 1.0 4.0 0.00 0.69 0.42 57 1012.5
20260506223847 58 273 1.0 3.0 0.00 0.69 0.42 58 1012.5
20260506223343 58 273 2.0 4.0 0.00 0.69 0.42 56 1012.7
20260506223010 57 273 2.0 4.0 0.00 0.70 0.42 56 1013.0
20260506222840 58 273 1.0 4.0 0.00 0.69 0.42 56 1012.7
20260506222333 58 273 2.0 5.0 0.00 0.69 0.42 56 1012.7
20260506221805 58 273 2.0 5.0 0.00 0.69 0.42 56 1012.7
20260506221515 57 273 1.0 4.0 0.00 0.70 0.42 53 1013.1
20260506221238 58 273 1.0 4.0 0.00 0.70 0.42 54 1012.8
20260506220731 58 273 1.0 4.0 0.00 0.70 0.42 52 1012.8
20260506220714 58 273 1.0 5.0 0.00 0.70 0.42 51 1013.0
20260506220002 57 273 1.0 3.0 0.00 0.73 0.42 55 1013.2
20260506215703 58 273 2.0 5.0 0.00 0.70 0.42 56 1013.0
20260506215208 58 273 2.0 5.0 0.00 0.70 0.42 53 1012.8